Weather History for FAGG - October, 2013

Change the Weather History Date:

Thursday, October 24, 2013

  Actual Average Record
Temperature  
Mean Temperature 64 °F -  
Max Temperature 75 °F 69 °F 75 °F (2013)
Min Temperature 52 °F 52 °F 48 °F (2000)
Degree Days  
Heating Degree Days 2    
Growing Degree Days 14 (Base 50)    
Moisture  
Dew Point 57 °F    
Average Humidity 77    
Maximum Humidity 94    
Minimum Humidity 46    
Precipitation  
Precipitation 0.03 in - - ()
Sea Level Pressure  
Sea Level Pressure 30.03 in    
Wind  
Wind Speed 4 mph ()    
Max Wind Speed 12 mph    
Max Gust Speed -    
Visibility 6.7 miles    
Events Fog , Rain , Thunderstorm    
Averages and records for this station are not official NWS values.
T = Trace of Precipitation, MM = Missing Value Source: Averaged Metar Reports

Daily Weather History Graph

Daily Weather History Graph

Search for Another Location

Airport or City:

Trip Planner

Search our weather history database for the weather conditions in past years. The results will help you decide how hot, cold, wet, or windy it might be!

Date:

Astronomy

Oct. 24, 2013 Rise Set
Actual Time 5:38 AM SAST 6:51 PM SAST
Civil Twilight 5:12 AM SAST 7:17 PM SAST
Nautical Twilight 4:41 AM SAST 7:48 PM SAST
Astronomical Twilight 4:09 AM SAST 8:21 PM SAST
Moon 11:47 PM SAST (10/24) 9:32 AM SAST (10/24)
Length of Visible Light 14h 05m
Length of Day
13h 13m
Waning Gibbous, 73% of the Moon is Illuminated
Oct 24
Waning Gibbous
Oct 27
Last Quarter
Nov 3
New
Nov 10
First Quarter
Nov 17
Full

Hourly Weather History & Observations

Time (SAST) Temp. Dew Point Humidity Pressure Visibility Wind Dir Wind Speed Gust Speed Precip Events Conditions
12:00 AM 59.0 °F 57.2 °F 94% 30.15 in - Variable 2.3 mph - N/A   Clear
1:00 AM 57.2 °F 53.6 °F 88% 30.12 in - Variable 2.3 mph - N/A   Clear
2:00 AM 56 °F 53 °F 88% 30.14 in 6 mi NW 2.3 mph - -  
2:00 AM 55.4 °F 53.6 °F 94% 30.12 in - NNW 2.3 mph - N/A   Clear
3:00 AM 55.4 °F 51.8 °F 88% 30.12 in 6.2 mi NNE 2.3 mph - N/A   Scattered Clouds
5:00 AM 54 °F 52 °F 89% 30.11 in 2 mi NW 4.6 mph - - Fog Light Fog
5:00 AM 53.6 °F 51.8 °F 94% 30.09 in 1.2 mi North 3.5 mph - N/A Fog Partly Cloudy
6:00 AM 51.8 °F 50.0 °F 94% 30.09 in 6.2 mi NW 3.5 mph - N/A Fog Partly Cloudy
7:00 AM 55.4 °F 53.6 °F 94% 30.09 in 3.1 mi WNW 4.6 mph - N/A   Partly Cloudy
8:00 AM 58 °F 56 °F 93% 30.11 in 5 mi NW 3.5 mph - -   Mist
8:00 AM 59.0 °F 57.2 °F 94% 30.09 in 4.3 mi NW 3.5 mph - N/A   Partly Cloudy
9:00 AM 66.2 °F 57.2 °F 73% 30.09 in - Variable 2.3 mph - N/A   Clear
10:00 AM 68.0 °F 55.4 °F 64% 30.06 in - SSE 5.8 mph - N/A   Clear
11:00 AM 71 °F 55 °F 46% 30.05 in 19 mi SE 4.6 mph - -  
11:00 AM 71.6 °F 55.4 °F 57% 30.06 in - SE 4.6 mph - N/A   Clear
12:00 PM 71.6 °F 57.2 °F 60% 30.04 in - SSE 10.4 mph - N/A   Clear
1:00 PM 73.4 °F 59.0 °F 61% 30.01 in - SSE 9.2 mph - N/A   Clear
2:00 PM 74 °F 58 °F 47% 30.01 in 12 mi SE 9.2 mph - -   Scattered Clouds
2:00 PM 75.2 °F 57.2 °F 53% 30.01 in - SE 9.2 mph - N/A   Clear
3:00 PM 75.2 °F 57.2 °F 53% 29.98 in - ESE 8.1 mph - N/A   Clear
4:00 PM 73.4 °F 59.0 °F 61% 29.95 in - ESE 8.1 mph - N/A   Clear
5:00 PM 72 °F 62 °F 63% 29.95 in 12 mi ESE 11.5 mph - -   Scattered Clouds
5:00 PM 71.6 °F 60.8 °F 69% 29.92 in - ESE 11.5 mph - N/A   Clear
6:00 PM 69.8 °F 60.8 °F 73% 29.92 in - ESE 10.4 mph - N/A   Clear
7:00 PM 64.4 °F 60.8 °F 88% 29.92 in 6.2 mi East 6.9 mph - N/A   Partly Cloudy
8:00 PM 65 °F 61 °F 83% 29.99 in 12 mi WNW 5.8 mph - - Thunderstorm Thunderstorm
8:00 PM 64.4 °F 60.8 °F 88% 29.98 in 6.2 mi WNW 5.8 mph - N/A Thunderstorm Thunderstorm
9:00 PM 64.4 °F 60.8 °F 88% 29.92 in 4.3 mi SE 8.1 mph - N/A Rain Light Rain
10:00 PM 64.4 °F 60.8 °F 88% 29.92 in 3.7 mi SE 5.8 mph - N/A   Partly Cloudy
11:00 PM 64.4 °F 62.6 °F 94% 29.98 in 4.3 mi West 11.5 mph - N/A   Mostly Cloudy